AirNav   Pilot Hours Calculator
 
 303 users online  

48X Airport Manatee
Palmetto, Florida, USA

GOING TO PALMETTO?


FAA INFORMATION EFFECTIVE 25 FEBRUARY 2021

Location

FAA Identifier: 48X
Lat/Long: 27-38-33.3500N 082-31-11.7000W
27-38.555833N 082-31.195000W
27.6425972,-82.5199167
(estimated)
Elevation: 27 ft. / 8 m (estimated)
Variation: 02W (1985)
From city: 7 miles NE of PALMETTO, FL
Time zone: UTC -5 (UTC -4 during Daylight Saving Time)
Zip code: 34221

Airport Operations

Airport use: Open to the public
Activation date: 05/1977
Control tower: no
ARTCC: MIAMI CENTER
FSS: SAINT PETERSBURG FLIGHT SERVICE STATION
NOTAMs facility: PIE (NOTAM-D service available)
Attendance: SAT 0900-1200, ALL MON-FRI 0900-1700
CALL AMGR FOR AFTER HRS SVC AND CHECK RY CONDITIONS 941-722-9296.
Wind indicator: yes
Segmented circle: yes
Lights: LIRL RWY 7/25 AVBL BY PHONE REQUEST 941-722-9296.

Airport Communications

CTAF: 122.9
WX ASOS at SPG (9 nm NW): 118.875 (727-821-4334)
WX ASOS at SRQ (15 nm S): 124.375 (941-355-8482)
WX AWOS-3 at TPF (17 nm N): 118.925 (813-251-6824)
WX ASOS at PIE (18 nm NW): 134.5 (727-531-3456)
WX ASOS at TPA (20 nm N): 126.45 (813-873-7228)

Nearby radio navigation aids

VOR radial/distance  VOR name  Freq  Var
SRQr014/14.3SARASOTA VOR/DME117.0005W
PIEr156/18.1ST PETERSBURG VORTAC116.4005W
LALr231/33.9LAKELAND VORTAC116.0001E

Airport Services

Fuel available: 100LL
FUEL AVBL DAILY SR-SS.
Parking: hangars and tiedowns
Airframe service: MINOR
Powerplant service: MINOR

Runway Information

Runway 7/25

Dimensions: 3120 x 100 ft. / 951 x 30 m
Surface: turf, in good condition
Runway edge lights: low intensity
Runway edge markings: RY 07 AND 25 THLDS MARKED BY THREE GREEN LGTS AND ONE BUCKET ON EACH SIDE OF RY.
RUNWAY 7  RUNWAY 25
Latitude: 27-38.496667N27-38.615000N
Longitude: 082-31.476667W082-30.913333W
Traffic pattern: rightleft
Obstructions: 38 ft. trees, 745 ft. from runway, 125 ft. left of centerline, 20:1 slope to clear
8 FT TREES 90-100 FT S OF RY CNTRLN FULL LENGTH. ACFT HANGARS 135 FT L OF CNTRLN FIRST HALF OF RY 07. ACFT PARKED 100 FT R OF CNTRLN FIRST 1/3 OF RY 25.
12 ft. brush, 235 ft. from runway, 95 ft. right of centerline, 20:1 slope to clear

Airport Ownership and Management from official FAA records

Ownership: Privately-owned
Owner: REEDER FARMS LLC
14108 U.S. HIGHWAY 41 NORTH
PALMETTO, FL 34221
Phone 941-722-9296
CONTACT PERSON: TOM REEDER: 941-722-9296
Manager: TOM REEDER
14108 U.S. HIGHWAY 41 NORTH
PALMETTO, FL 34221
Phone 941-722-9296
AIRPORT PHYSICAL ADDRESS: 14108 U.S. HIGHWAY 41 NORTH; FAX: 941-721-9067

Airport Operational Statistics

Aircraft based on the field: 55
Single engine airplanes: 39
Ultralights: 16
    
Aircraft operations: avg 136/week *
70% local general aviation
28% transient general aviation
1% military
* for 12-month period ending 13 December 2017

Additional Remarks

BIRDS, WILDLIFE AND DEER ON AND INVOF ARPT.
RY 07/25 FIRST 500 FT EAST END SOFT AFTER HEAVY SEASONAL RAINS.
RY 7/25 SPRINKLERS ACTIVE MON-THU 2000-0500.
AIRPORT CLSD TO TURBINE HELI OPS INCLUDING HOVER AND PRACTICE MANUEVERS AT NE FIELD ADJ TO RWY 7/25 EXC BELL JET RANGERS, EMERG. CALL IN ADVANCE 941-722-9296.
FOR CD CTC TAMPA APCH AT 813-878-2528

Instrument Procedures

There are no published instrument procedures at 48X.

Some nearby airports with instrument procedures:

KSPG - Albert Whitted Airport (9 nm NW)
KMCF - MacDill Air Force Base (12 nm N)
KSRQ - Sarasota/Bradenton International Airport (15 nm S)
KTPF - Peter O Knight Airport (17 nm N)
KPIE - St Pete-Clearwater International Airport (18 nm NW)
KTPA - Tampa International Airport (20 nm N)
 
Loc | Ops | Rwys | IFR | FBO | Links
Com | Nav | Svcs | Stats | Notes


 
Area around 48X (Airport Manatee)
 
Road maps at: MapQuest Bing Google
 
Aerial photo
WARNING: Photo may not be current or correct
Aerial photo of 48X (Airport Manatee)
Photo courtesy of PhotosFromTheAir.com
Photo taken 26-Apr-2012
looking northeast.

Do you have a better or more recent aerial photo of Airport Manatee that you would like to share? If so, please send us your photo.

 
Sectional chart

 
Airport distance calculator
Flying to Airport Manatee? Find the distance to fly.

From to 48X

Sunrise and sunset
Times for 01-Mar-2021
 Local
(UTC-5)
 Zulu
(UTC)
Morning civil twilight06:3211:32
Sunrise06:5611:56
Sunset18:2923:29
Evening civil twilight18:5323:53

Current date and time
Zulu (UTC)  01-Mar-2021 08:25:35
Local (UTC-5)  01-Mar-2021 03:25:35
 
METAR
KSPG 
10nm NW 
010753Z AUTO 16003KT 10SM CLR 22/21 A3005 RMK AO2 SLP174 T02220211
KMCF 
12nm N 
010756Z AUTO 16006KT 10SM CLR 22/22 A3004 RMK AO2 SLP176 T02220220 FZRANO $
KSRQ 
15nm S 
010753Z AUTO 13004KT 10SM CLR 21/20 A3004 RMK AO2 SLP172 T02060200
KTPF 
17nm N 
010755Z AUTO 17006KT 10SM SCT110 23/21 A3007 RMK AO2
KPIE 
19nm NW 
010753Z AUTO 15004KT 10SM CLR 22/21 A3006 RMK AO2 SLP179 T02220211 $
KTPA 
19nm N 
010753Z 16004KT 10SM FEW023 23/20 A3007 RMK AO2 SLP181 T02280200
TAF
KMCF 
12nm N 
010100Z 0101/0207 24006KT 9999 SKC QNH3008INS BECMG 0105/0106 12006KT 9999 SCT007 BKN020 QNH3006INS TEMPO 0106/0112 VRB06KT BKN005 BECMG 0112/0113 18009KT 9999 SCT040 QNH3014INS TX28/0118Z TN20/0108Z
KSRQ 
15nm S 
281720Z 2818/0118 16012G20KT P6SM SCT035 SCT250 FM282000 21012KT P6SM SCT040 SCT250 FM010100 16005KT P6SM BKN050 FM010800 15004KT P6SM SCT015 SCT050 TEMPO 0109/0113 5SM BR BKN015 FM011400 17010KT P6SM BKN020 BKN050
KPIE 
19nm NW 
281720Z 2818/0118 16013G20KT P6SM SCT035 SCT250 FM282000 20012KT P6SM SCT040 SCT250 FM010100 19004KT P6SM BKN050 FM010800 15004KT P6SM SCT015 SCT050 TEMPO 0109/0113 5SM BR BKN015 FM011400 17010KT P6SM BKN020 BKN050
KTPA 
19nm N 
010302Z 0103/0206 18004KT P6SM SCT050 SCT250 FM010800 VRB03KT P6SM FEW007 TEMPO 0109/0113 5SM BR BKN007 FM011400 17007KT P6SM BKN020 FM011600 21010KT P6SM SCT035 BKN250 FM020100 24005KT P6SM FEW050 SCT250
NOTAMs
Click for the latest NOTAMs
NOTAMs are issued by the DoD/FAA and will open in a separate window not controlled by AirNav.

 

 
 

FBO, Fuel Providers, and Aircraft Ground Support

  
 Business Name 
 
 Contact 
 
 Services / Description 
 
Fuel Prices
 
Comments
  
Airport Manatee 941-722-9296
[web site]
[email]
Airport management, Aviation fuel, Aircraft parking (ramp or tiedown), Hangars, Hangar leasing / sales, Passenger terminal and lounge, Flight training, ...

More info about Airport Manatee
independent
100LL
SS $3.97 
 Updated 26-Feb-2021
 
   1 read write
SS=Self service
Update Fuel Prices
 

Would you like to see your business listed on this page?

 If your business provides an interesting product or service to pilots, flight crews, aircraft, or users of the Airport Manatee, you should consider listing it here.  To start the listing process, click on the button below
 
Add a business
 

Other Pages about Airport Manatee

airportmanatee48x.com
 
Update a link
 
Copyright © AirNav, LLC. All rights reserved. Privacy Policy  Contact